Home > Time Zones > World Clock > Weather > U.S.A. > Yuma > Past weeks

Flag for U.S.A. Weather past 2 weeks in Yuma, Arizona, U.S.A.

Now
61 °F

Passing clouds.


Feels Like: 61 °F
Forecast: 37 / 63 °F
Wind: 6 mph from North

Location: Yuma Marine Corps Air Station

Current Time: Dec 28, 2014 at 5:28:01 PM

Latest Report: Dec 28, 2014 at 4:57 PM


Visibility: 7 mi

Pressure: 30.16 "Hg

Humidity: 20%

Dew point: 19 °F

Location of YumaLocation

Historic Weather in Yuma — Graph

°F

Yuma temperature yesterday

Maximum temperature yesterday: 61 °F (at 2:57 PM)
Minimum temperature yesterday: 43 °F (at 5:57 AM)
Average temperature yesterday: 51 °F

Past Weeks' High & Low Weather Summary

 TemperatureHumidityPressure
High129 °F (Dec 17, 8:57 AM)97% (Dec 18, 5:57 AM)30.35 "Hg (Dec 18, 5:57 AM)
Low37 °F (Dec 28, 5:57 AM)7% (Dec 17, 8:57 AM)29.68 "Hg (Dec 25, 3:57 AM)
Average57 °F45%30.07 "Hg
* Reported Dec 13 3:57 PM — Dec 28 3:57 PM, Yuma, Weather by CustomWeather, © 2014

Note: Actual official high and low records may vary slightly from our data, if they occured in-between our weather recording intervals... More about our weather records

Advertising

Yuma weather history for previous 24 hours

 ConditionsComfort  
Time TempWeatherWind HumidityBarometerVisibility
3:57 PM
Dec 28
66 °FScattered clouds.7 mph18%30.17 "Hg7 mi
2:57 PM62 °FBroken clouds.8 mph20%30.19 "Hg7 mi
1:57 PM52 °FBroken clouds.6 mph27%30.20 "Hg7 mi
12:57 PM57 °FBroken clouds.8 mph18%30.23 "Hg7 mi
11:57 AM59 °FPartly sunny.8 mph18%30.27 "Hg7 mi
10:57 AM57 °FPartly sunny.8 mph18%30.29 "Hg7 mi
9:57 AM51 °FScattered clouds.7 mph23%30.30 "Hg7 mi
8:57 AM44 °FScattered clouds.6 mph29%30.29 "Hg7 mi
7:57 AM38 °FPassing clouds.3 mph37%30.27 "Hg7 mi
6:57 AM39 °FClear.No wind38%30.27 "Hg7 mi
5:57 AM37 °FClear.No wind48%30.27 "Hg7 mi
4:57 AM39 °FClear.No wind43%30.27 "Hg7 mi
3:57 AMN/AClear.No windN/A30.29 "HgN/A
2:57 AM41 °FClear.No wind39%30.30 "Hg7 mi
1:57 AM40 °FClear.No wind47%30.31 "Hg7 mi
12:57 AM42 °FClear.No wind38%30.31 "Hg7 mi
11:57 PM
Dec 27
43 °FClear.No wind40%30.32 "Hg7 mi
10:57 PM45 °FClear.No wind35%30.34 "Hg7 mi
9:57 PM46 °FPassing clouds.No wind30%30.35 "Hg7 mi
8:57 PM48 °FPassing clouds.5 mph30%30.34 "Hg7 mi
7:57 PM51 °FPassing clouds.5 mph22%30.33 "Hg7 mi
6:57 PM53 °FPassing clouds.7 mph20%30.32 "Hg7 mi
5:57 PM55 °FPassing clouds.5 mph20%30.31 "Hg10 mi
Weather by CustomWeather, © 2014

See weather overviewHow to use our weather pages